sat.trackr.live / text

‹ back to catalog

STARLINK-32194

NORAD 60315 · 2024-133Q

PAYLOAD ACTIVE UNKNOWN

§ Identity

Operator
Country
US
Launch date
2024-07-28
Launch site
AFWTR
Launch vehicle
Mass (kg)
RCS (m²)

Purposes: comms

External: N2YO · Heavens-Above · Gunter

§ Orbital elements

Epoch: 2026-05-24T20:52:10.318368Z

Period
94.10 min
Inclination
53.1615°
Eccentricity
0.0001039
Mean motion
15.30206946 rev/d
Perigee alt
474.5 km
Apogee alt
475.9 km
Semi-major
6,853.3 km
B*
6.8860e-5
RAAN
303.2263°
Arg perigee
83.9681°
Mean anomaly
276.1438°
Rev number
10,330

§ Raw data

STARLINK-321941 60315U 24133Q   26144.86956387  .00001681  00000+0  68860-4 0  99942 60315  53.1615 303.2263 0001039  83.9681 276.1438 15.30206946103309

JSON: /api/v1/satellites/60315 · /tle

For live sub-satellite position, see the globe view (requires WebGL).

§ Visibility from observer

Set your observer location to see the next 7 days of passes ≥ 10°. The values pass through the URL so the page stays shareable.

No JS? Fill the form by hand. The geolocation button needs JavaScript.